Location: Port Huron
(43.0000°N, 82.2400°W)
Time: 00:40:58
(UTC-05:00)

ISS - Visible Passes

Search period start: 11 December 2017 00:00
Search period end: 21 December 2017 00:00
Orbit: 402 x 407 km, 51.6° (Epoch: 11 December)

Date Brightness Start Highest point End Pass type
(mag) Time Alt. Az. Time Alt. Az. Time Alt. Az.
11 Dec -3.1 18:23:15 10° NW 18:26:18 34° NNE 18:26:30 34° NNE visible
12 Dec -2.5 17:31:06 10° NW 17:33:54 25° NNE 17:36:41 10° ENE visible
12 Dec -2.3 19:07:22 10° WNW 19:09:25 35° WNW 19:09:25 35° WNW visible
13 Dec -3.9 18:15:06 10° NW 18:18:22 63° NNE 18:19:50 29° ESE visible
13 Dec -0.2 19:52:20 10° W 19:52:32 11° W 19:52:32 11° W visible
14 Dec -3.2 17:22:54 10° NW 17:26:01 39° NNE 17:29:08 10° E visible
14 Dec -2.1 18:59:30 10° WNW 19:02:27 30° SW 19:03:14 27° SSW visible
15 Dec -3.2 18:07:01 10° WNW 18:10:15 58° SW 18:13:29 10° SE visible
16 Dec -0.7 18:52:19 10° W 18:54:03 14° SW 18:55:47 10° SSW visible
17 Dec -1.3 17:59:12 10° W 18:01:57 25° SW 18:04:41 10° SSE visible
19 Dec -0.1 17:52:30 10° WSW 17:53:26 11° SW 17:54:23 10° SSW visible
